This is the latest recevied weather packets stored in our database for station/object KC0AFB. If no packets are shown the sender has not sent any weather packets the latest 10 day(s).
| Time | Temp. | Humidity | Pressure | Rain* | Wind** | Luminosity | Snow |
|---|---|---|---|---|---|---|---|
| 1777478519 | 10° C | 50% | 1018.3 hPa | 0 mm | - | 634 W/m² | - |
| 1777478216 | 9.44° C | 50% | 1018.5 hPa | 0 mm | - | 619 W/m² | - |
| 1777477913 | 8.89° C | 49% | 1018.5 hPa | 0 mm | - | 630 W/m² | - |
| 1777477607 | 8.89° C | 52% | 1018.7 hPa | 0 mm | - | 604 W/m² | - |
| 1777477304 | 8.89° C | 54% | 1018.3 hPa | 0 mm | - | 586 W/m² | - |
| 1777477001 | 8.89° C | 55% | 1018.6 hPa | 0 mm | - | 586 W/m² | - |
| 1777476699 | 8.33° C | 55% | 1018.5 hPa | 0 mm | - | 573 W/m² | - |
| 1777476395 | 8.33° C | 54% | 1018.5 hPa | 0 mm | - | 555 W/m² | - |
| 1777476092 | 7.78° C | 56% | 1018.6 hPa | 0 mm | - | 306 W/m² | - |
| 1777475787 | 7.78° C | 55% | 1018.5 hPa | 0 mm | - | 79 W/m² | - |
| 1777475484 | 7.78° C | 56% | 1018.3 hPa | 0 mm | - | 82 W/m² | - |
| 1777475180 | 7.22° C | 56% | 1018.9 hPa | 0 mm | - | 86 W/m² | - |
| 1777474876 | 6.67° C | 57% | 1018.5 hPa | 0 mm | - | 481 W/m² | - |
| 1777474572 | 6.67° C | 57% | 1018.8 hPa | 0 mm | - | 196 W/m² | - |
| 1777474269 | 7.22° C | 57% | 1018.7 hPa | 0 mm | - | 225 W/m² | - |
| 1777473965 | 7.22° C | 58% | 1018.8 hPa | 0 mm | - | 385 W/m² | - |
| 1777473663 | 7.78° C | 56% | 1018.5 hPa | 0 mm | - | 343 W/m² | - |
| 1777473359 | 7.22° C | 56% | 1018.7 hPa | 0 mm | - | 315 W/m² | - |
| 1777473055 | 6.11° C | 59% | 1018.5 hPa | 0 mm | - | 299 W/m² | - |
| 1777472752 | 6.67° C | 58% | 1018.6 hPa | 0 mm | - | 293 W/m² | - |
| 1777472449 | 6.11° C | 58% | 1018.7 hPa | 0 mm | - | 271 W/m² | - |
| 1777472146 | 6.11° C | 59% | 1018.8 hPa | 0 mm | - | 249 W/m² | - |
| 1777471845 | 5.56° C | 58% | 1018.5 hPa | 0 mm | - | 267 W/m² | - |
| 1777471543 | 5° C | 60% | 1018.6 hPa | 0 mm | - | 238 W/m² | - |
| 1777471239 | 4.44° C | 63% | 1018.6 hPa | 0 mm | - | 227 W/m² | - |
* Rain latest hour (hover to see other rain measurements)
** Current wind speed in m/s (hover to see current wind gust speed)